Header for Extended Forecast Station List Page

Search by: ID | Name | Date | Parm | Value | Avg | % Avg
Sort by: ID | Name | Date | Parm | Value | Avg | % Avg

Enter search or view all records.

Click on id for station plot
#IDNameDateParmValueAvg% Avg
0MILI1SNAKE-AT MILNER10-09-2018DISCHARGE (KAF)13251426
1TNAW1TEANAWAY-BELOW FORKS10-09-2018DISCHARGE (KAF)113533
2COEI1COEUR D ALENE-COEUR D ALENE LAKE10-09-2018INFLOW (KAF)23459539
3LLKW1SPOKANE-AT LONGLAKE10-09-2018INFLOW (KAF)525104450
4STRM8ST. REGIS-NEAR ST. REGIS10-09-2018DISCHARGE (KAF)183651
5SATI1ST MARIES-NEAR SANTA10-09-2018DISCHARGE (KAF)152952
6CLUW1CLE ELUM-CLE ELUM LAKE10-09-2018INFLOW (KAF)5510055
7SPDI1CLEARWATER-AT SPALDING10-09-2018DISCHARGE (KAF)819149855
8HHWM8SF FLATHEAD-HUNGRY HORSE DAM10-09-2018INFLOW (KAF)13724456
9WSRI1WEISER-NEAR WEISER10-09-2018DISCHARGE (KAF)376656
10DWRI1NF CLEARWATER-DWORSHAK DAM10-09-2018INFLOW (KAF)26747656
11FCFM8NF FLATHEAD-NEAR COLUMBIA FALLS10-09-2018DISCHARGE (KAF)11219657
12RILW1TIETON-RIMROCK LAKE NEAR RIMROCK10-09-2018INFLOW (KAF)376458
13PRTI1PRIEST-NEAR PRIEST RIVER10-09-2018DISCHARGE (KAF)13823459
14BUDW1BUMPING-BUMPING LAKE DAM10-09-2018INFLOW (KAF)203459
15ORFI1CLEARWATER-AT OROFINO10-09-2018DISCHARGE (KAF)38262761
16WRMO3MALHEUR-WARM SPRINGS DAM10-09-2018INFLOW (KAF)111862
17MONO3NF JOHN DAY-AT MONUMENT10-09-2018DISCHARGE (KAF)548862
18PESW1WENATCHEE-AT PESHASTIN10-09-2018DISCHARGE (KAF)18429063
19LGDW1SNAKE-LOWER GRANITE DAM10-09-2018INFLOW (KAF)4643722764
20LGSW1SNAKE-LITTLE GOOSE DAM10-09-2018INFLOW (KAF)4643727764
21LMNW1SNAKE-LOWER MONUMENTAL DAM10-09-2018INFLOW (KAF)4675733464
22IHDW1SNAKE-ICE HARBOR DAM10-09-2018INFLOW (KAF)4675725764
23HOTI1BRUNEAU-NEAR HOT SPRINGS10-09-2018DISCHARGE (KAF)172666
24CLFW1NACHES-NEAR CLIFFDEL10-09-2018DISCHARGE (KAF)669867
25BERO3MALHEUR-AGENCY VALLEY DAM10-09-2018INFLOW (KAF)101567
26KERM8FLATHEAD-KERR DAM10-09-2018INFLOW (KAF)1012149468
27TRYO3GRANDE RONDE-TROY10-09-2018DISCHARGE (KAF)18527268
28ANAW1SNAKE-NEAR ANATONE10-09-2018DISCHARGE (KAF)3823552369
29ALFW1PEND OREILLE-ALBENI FALLS DAM10-09-2018INFLOW (KAF)2899416970
30EASW1YAKIMA-AT EASTON10-09-2018DISCHARGE (KAF)456470
31VALO3MALHEUR-NEAR VALE10-09-2018DISCHARGE (KAF)162470
32LAUW1KETTLE-AT LAURIER10-09-2018DISCHARGE (KAF)9012771
33IPDI1HENRYS FORK-ISLAND PARK DAM10-09-2018INFLOW (KAF)8411871
34BITM8BITTERROOT-NEAR MISSOULA10-09-2018DISCHARGE (KAF)16623072
35SERO3JOHN DAY-AT SERVICE CK10-09-2018DISCHARGE (KAF)12116772
36NOXM8CLARK FORK-NOXON RAPIDS DAM10-09-2018INFLOW (KAF)2524344273
37KEDW1YAKIMA-KEECHELUS LAKE10-09-2018INFLOW (KAF)375074
38PARW1YAKIMA-NEAR PARKER10-09-2018DISCHARGE (KAF)31542374
39CFMM8FLATHEAD-AT COLUMBIA FALLS10-09-2018DISCHARGE (KAF)902119276
40NACW1NACHES-NEAR NACHES10-09-2018DISCHARGE (KAF)547076
41CABI1CLARK FORK-CABINET GORGE DAM10-09-2018INFLOW (KAF)2766358777
42SWAI1SNAKE-BELOW SWAN FALLS10-09-2018DISCHARGE (KAF)1927251777
43WEII1SNAKE-AT WEISER10-09-2018DISCHARGE (KAF)2734355977
44KADW1KACHESS-KACHESS DAM10-09-2018INFLOW (KAF)344379
45BRNI1SNAKE-BROWNLEE DAM10-09-2018INFLOW (KAF)2909366079
46EMMI1PAYETTE-NEAR EMMETT10-09-2018DISCHARGE (KAF)28034481
47UMTW1YAKIMA-AT UMTANUM10-09-2018DISCHARGE (KAF)19724182
48KIOW1YAKIMA-AT KIONA10-09-2018DISCHARGE (KAF)54165982
49MAGI1BIG WOOD-MAGIC DAM10-09-2018INFLOW (KAF)222782
50PITW1KLICKITAT-NEAR PITT10-09-2018DISCHARGE (KAF)21125782
51BONO3COLUMBIA-BONNEVILLE DAM10-09-2018INFLOW (KAF)285163486382
52LYDM8KOOTENAI-LIBBY DAM10-09-2018INFLOW (KAF)77493783
53TONW1OKANOGAN-NEAR TONASKET10-09-2018DISCHARGE (KAF)23628084
54LWRI1LITTLE WOOD-LITTLE WOOD DAM10-09-2018INFLOW (KAF)131585
55TDAO3COLUMBIA-THE DALLES DAM10-09-2018INFLOW (KAF)278713291485
56ARDW1ENTIAT-NEAR ARDENVOIR10-09-2018DISCHARGE (KAF)192287
57WGCM8MF FLATHEAD-NEAR WEST GLACIER10-09-2018DISCHARGE (KAF)15117288
58CHDW1CHELAN-LAKE CHELAN DAM10-09-2018INFLOW (KAF)13815688
59PARI1BOISE-NEAR PARMA10-09-2018DISCHARGE (KAF)18420988
60PIHI1PORTNEUF-AT POCATELLO10-09-2018DISCHARGE (KAF)535989
61CSDI1NF PAYETTE-CASCADE DAM10-09-2018INFLOW (KAF)829289
62DEDI1DEADWOOD-NEAR LOWMAN10-09-2018INFLOW (KAF)171989
63TCHW1WALLA WALLA-NEAR TOUCHET10-09-2018DISCHARGE (KAF)869789
64SRGM8CLARK FORK-AT ST REGIS10-09-2018DISCHARGE (KAF)68575790
65MCDW1COLUMBIA-MCNARY DAM10-09-2018INFLOW (KAF)261302883291
66TEAI1TETON-NEAR ST. ANTHONY10-09-2018DISCHARGE (KAF)9910792
67HALI1BIG WOOD-AT HAILEY10-09-2018DISCHARGE (KAF)374192
68MYKO3MCKAY CREEK-NEAR PILOT ROCK10-09-2018DISCHARGE (KAF)131492
69JDAO3COLUMBIA-JOHN DAY DAM10-09-2018INFLOW (KAF)271862966692
70ARAI1SF BOISE-ANDERSON RANCH DAM10-09-2018INFLOW (KAF)687393
71WHBI1SALMON-AT WHITEBIRD10-09-2018DISCHARGE (KAF)1008108493
72BELM8CLARK FORK-BELOW MISSOULA10-09-2018DISCHARGE (KAF)55058195
73CHJW1COLUMBIA-CHIEF JOSEPH DAM10-09-2018INFLOW (KAF)197902081395
74WELW1COLUMBIA-WELLS DAM10-09-2018INFLOW (KAF)201222116895
75RRHW1COLUMBIA-ROCKY REACH DAM10-09-2018INFLOW (KAF)206812167095
76JLKW4SNAKE-JACKSON LAKE AT DAM10-09-2018INFLOW (KAF)10611295
77MODO3DESCHUTES-AT MOODY NR BIGGS10-09-2018DISCHARGE (KAF)1288134296
78AFRI1SNAKE-AMERICAN FALLS RESERVOIR10-09-2018INFLOW (KAF)1436145299
79PLDI1SF SNAKE-PALISADES DAM10-09-2018INFLOW (KAF)648646100
80UNDW1WHITE SALMON-NEAR UNDERWOOD10-09-2018DISCHARGE (KAF)221221100
81BONM8BLACKFOOT-NEAR BONNER10-09-2018DISCHARGE (KAF)139137101
82REXI1HENRYS FORK-AT REXBURG10-09-2018DISCHARGE (KAF)433428101
83RIDI1WILLOW CREEK-RIRIE DAM10-09-2018INFLOW (KAF)88101
84BFTI1SNAKE-NEAR BLACKFOOT10-09-2018DISCHARGE (KAF)777771101
85PATW1METHOW-NEAR PATEROS10-09-2018DISCHARGE (KAF)101100102
86HEII1SNAKE-NEAR HEISE10-09-2018DISCHARGE (KAF)631620102
87ANTI1HENRYS FORK-AT ST. ANTHONY10-09-2018DISCHARGE (KAF)349338103
88JKSW4SNAKE-NEAR JACKSON10-09-2018DISCHARGE (KAF)325315103
89ALPW4SNAKE-NEAR ALPINE10-09-2018DISCHARGE (KAF)413400103
90CHEI1FALL RIVER-NEAR CHESTER10-09-2018DISCHARGE (KAF)117111105
91PRWW1COLUMBIA-PRIEST RAPIDS DAM10-09-2018INFLOW (KAF)2087919702106
92SIFI1SNAKE-AB EAGLE ROCK NR IDAHO FALLS10-09-2018DISCHARGE (KAF)868817106
93SNAI1SNAKE-AT BLACKFOOT10-09-2018DISCHARGE (KAF)758714106
94OWYO3OWYHEE-OWYHEE DAM10-09-2018INFLOW (KAF)7874107
95WANW1COLUMBIA-WANAPUM DAM10-09-2018INFLOW (KAF)2088019365108
96SHYI1SNAKE-NEAR SHELLEY10-09-2018DISCHARGE (KAF)863797108
97HODO3HOOD-NEAR TUCKER BRIDGE10-09-2018DISCHARGE (KAF)224209108
98DLGM8CLARK FORK-AT DEER LODGE10-09-2018DISCHARGE (KAF)6963109
99ABOM8CLARK FORK-ABOVE MISSOULA10-09-2018DISCHARGE (KAF)381347110
100GIBO3UMATILLA-NEAR GIBBON10-09-2018DISCHARGE (KAF)3329111
101HWRI1BIG LOST-AT HOWELL RANCH NEAR CHILLY10-09-2018DISCHARGE (KAF)2422112
102PDTO3UMATILLA-AT PENDLETON10-09-2018DISCHARGE (KAF)7366112
103GCDW1COLUMBIA-GRAND COULEE DAM10-09-2018INFLOW (KAF)1971017222114
104RCCM8ROCK CREEK-NEAR CLINTON10-09-2018DISCHARGE (KAF)6050121
105BULO3BULLY CREEK-BULLY CREEK DAM10-09-2018INFLOW (KAF)22128
106BIGI1BOISE-AT GLENWOOD BRIDGE10-09-2018DISCHARGE (KAF)5137135
107LEOI1KOOTENAI-AT LEONIA10-09-2018DISCHARGE (KAF)24801614154
108UMAO3UMATILLA-NEAR UMATILLA10-09-2018DISCHARGE (KAF)10869157
109MACI1BIG LOST-MACKAY RESERVOIR NEAR MACKAY10-09-2018INFLOW (KAF)436677
110BFEI1KOOTENAI-AT BONNERS FERRY10-09-2018STAGE (FT)MMM
111DRMM8CLARK FORK-NR DRUMMOND10-09-2018DISCHARGE (KAF)167MM
112HOPI1PEND OREILLE-PEND OREILLE LAKE NR HOPE10-09-2018LAKE ELEVATION (FT)MMM
113SPOW1SPOKANE-AT SPOKANE10-09-2018DISCHARGE (KAF)339MM
114SJMI1ST JOE-AT ST MARIES10-09-2018STAGE (FT)MMM
115CIBW1COLUMBIA-AT INTL BOUNDARY10-09-2018DISCHARGE (KAF)19033MM
116LUCI1BOISE-LUCKY PEAK DAM10-09-2018INFLOW (KAF)28MM